Location: A O Calhoun Middle School
(33.2198°N, 97.1397°W)
Time: 10:02:25
(UTC+00:00)

Cosmos 1538 Rocket - Pass Details

Date: 11 July 2022
Orbit: 752 x 791 km, 74.0° (Epoch: 13 August)

Event Time Altitude Azimuth Distance (km) Brightness Sun altitude
Exits shadow 10:21:25 18° 236° (SW) 1,817 5.3 -12.6°
Maximum altitude 10:24:42 35° 292° (WNW) 1,212 4.8 -12.1°
Drops below altitude 10° 10:29:26 10° 358° (N) 2,286 6.9 -11.3°
Sets 10:32:00 0° 7° (N) 3,210 7.9 -10.8°
